User: anonymous   Login
Location: Unspecified
(0.0000°N, 0.0000°E)
Time: 16:29:36
(UTC+00:00)
Language:

METEOR M2 - Orbit

View from above orbital plane
View from above orbital plane
View from above satellite
View from above satellite

Ground track
Ground track

The orbit data is extracted from the following two-line orbital elements,

1 40069U 14037A   17200.41985031 -.00000043 +00000-0 -10546-7 0  9997
2 40069 098.6522 254.4723 0006617 116.6623 243.5234 14.20643368157132
Epoch (UTC): 19 July 2017 10:04:35
Eccentricity: 0.0006617
inclination: 98.6522°
perigee height: 818 km
apogee height: 828 km
right ascension of ascending node: 254.4723°
argument of perigee: 116.6623°
revolutions per day: 14.20643368
mean anomaly at epoch: 243.5234°
orbit number at epoch: 15713

The dashed part of the orbit path shows where the satellite is in the earth's shadow,  

DLR